This demonstration page uses our WeatherBlox Daily Observations layout. Learn more.

39.92423, -83.80882

Hourly Observations for December 2, 2019

Temp ( °F °C ) Dew Point ( °F °C ) Humidity (%) Winds ( mph kmh ) Pressure ( in mb ) Visibility ( mi km ) Precip ( " mm )
12:08 am 00:08 Cloudy with Light Snow 34 1 34 1 100 100 SW 7 11 29.65 1004 2.5 4.02335 0.01 0.254
12:34 am 00:34 Cloudy with Light Snow 32 0 32 0 100 100 SSW 6 9 29.64 1004 2 3.21868 0.02 0.508
12:38 am 00:38 Cloudy with Light Snow 32 0 32 0 100 100 SSW 6 9 29.64 1004 1.75 2.816345 0.02 0.508
12:48 am 00:48 Cloudy with Light Snow 32 0 32 0 100 100 SSW 6 9 29.64 1004 1.75 2.816345 0.02 0.508
12:56 am 00:56 Cloudy with Light Snow 32 0 32 0 100 100 SW 6 9 29.62 1003 2 3.21868 0.02 0.508
1:56 am 01:56 Cloudy with Light Snow 32 0 32 0 100 100 W 7 11 29.63 1004 2 3.21868 0.02 0.508
2:31 am 02:31 Cloudy with Light Snow 34 1 34 1 100 100 W 7 11 29.67 1005 4 6.43736 0.03 0.762
2:56 am 02:56 Cloudy with Light Snow 33 0.6 33 0.6 100 100 W 7 11 29.66 1004 5 8.0467 0.04 1.016
3:28 am 03:28 Cloudy 34 1 34 1 100 100 WNW 9 15 29.68 1005 10 16.0934 0.001 0.001
3:56 am 03:56 Cloudy with Light Rain 34 1.1 34 1.1 100 100 WNW 12 19 29.67 1005 10 16.0934 0.001 0.001
4:56 am 04:56 Cloudy with Light Rain 35 1.7 35 1.7 100 100 NW 9 15 29.69 1006 10 16.0934 0.01 0.254
5:56 am 05:56 Cloudy with Light Rain 35 1.7 35 1.7 100 100 NW 12 19 29.71 1006 7 11.26538 0.001 0.001
6:56 am 06:56 Cloudy 36 2.2 36 2.2 100 100 WNW 15 24 29.74 1007 7 11.26538 0.001 0.001
7:39 am 07:39 Cloudy 36 2 36 2 100 100 NW 18 30 29.78 1009 9 14.48406 0 0
7:56 am 07:56 Cloudy 36 2.2 35 1.7 97 97 NW 18 30 29.78 1008 10 16.0934 0 0
8:56 am 08:56 Cloudy with Light Rain 34 1.1 34 1.1 100 100 NW 14 22 29.83 1010 5 8.0467 0.001 0.001
9:27 am 09:27 Cloudy 34 1 34 1 100 100 NW 14 22 29.86 1011 10 16.0934 0.001 0.001
9:56 am 09:56 Cloudy 34 1.1 33 0.6 97 97 NW 12 19 29.86 1011 10 16.0934 0.001 0.001
10:56 am 10:56 Cloudy 35 1.7 33 0.6 93 93 NW 13 20 29.88 1012 10 16.0934 0 0
11:56 am 11:56 Cloudy 35 1.7 33 0.6 93 93 NW 15 24 29.89 1012 10 16.0934 0 0
12:56 pm 12:56 Cloudy with Light Rain 35 1.7 33 0.6 93 93 NNW 10 17 29.89 1012 10 16.0934 0.001 0.001
1:56 pm 13:56 Cloudy with Light Rain 34 1.1 33 0.6 97 97 NW 14 22 29.9 1012 4 6.43736 0.001 0.001
2:05 pm 14:05 Cloudy with Light Rain 34 1 34 1 100 100 NW 15 24 29.91 1013 2.5 4.02335 0.001 0.001
2:25 pm 14:25 Cloudy with Light Rain 34 1 34 1 100 100 NW 12 19 29.91 1013 5 8.0467 0.001 0.001
2:37 pm 14:37 Cloudy with Light Snow 34 1 34 1 100 100 NNW 14 22 29.91 1013 1.75 2.816345 0.001 0.001
2:47 pm 14:47 Cloudy with Light Snow 34 1 34 1 100 100 NW 15 24 29.92 1013 3 4.82802 0.001 0.001
2:56 pm 14:56 Cloudy 34 1.1 33 0.6 97 97 NW 13 20 29.9 1013 9 14.48406 0.001 0.001
3:56 pm 15:56 Cloudy with Light Snow 34 1.1 32 0 92 92 NW 13 20 29.93 1013 7 11.26538 0.001 0.001
4:08 pm 16:08 Cloudy with Light Snow 34 1 32 0 93 93 NW 12 19 29.95 1014 9 14.48406 0.001 0.001
4:24 pm 16:24 Cloudy 34 1 32 0 93 93 NW 10 17 29.96 1015 10 16.0934 0.001 0.001
4:56 pm 16:56 Cloudy 33 0.6 32 0 96 96 NNW 10 17 29.95 1014 9 14.48406 0.001 0.001
5:56 pm 17:56 Cloudy 33 0.6 32 0 96 96 NW 9 15 29.98 1015 10 16.0934 0 0
6:56 pm 18:56 Cloudy 34 1.1 31 -0.6 89 89 NW 10 17 30 1016 10 16.0934 0 0
7:56 pm 19:56 Cloudy 34 1.1 31 -0.6 89 89 NW 9 15 30.01 1016 10 16.0934 0 0
8:56 pm 20:56 Cloudy 33 0.6 31 -0.6 92 92 NW 8 13 30.01 1016 10 16.0934 0 0
9:56 pm 21:56 Cloudy 33 0.6 31 -0.6 92 92 NNW 6 9 30.01 1016 10 16.0934 0 0
10:56 pm 22:56 Cloudy 33 0.6 31 -0.6 92 92 NW 7 11 30.02 1017 10 16.0934 0 0
11:56 pm 23:56 Cloudy 33 0.6 31 -0.6 92 92 NNW 3 6 30 1016 10 16.0934 0 0

Powered by AerisWeather